Weather in Weda

Indonesia     0˚19′34″N   127˚49′45″E
temp.,
°C
wind,
m/s
gust,
m/s
humid.,
%
clouds,
%
prec.,
mm/h
press.,
hPa
HPBL,
m
16 january, sat
sat1600:00+25˚nnw0188100 0.3 100631
03:00+24˚nw1289100 0.3 100543
06:00+24˚nw2391100 0.1 1005107
09:00+27˚wnw2577100 0.1 1007725
12:00+30˚wnw4765100 0.1 10061001
15:00+29˚wnw4769100 1.4 1004931
18:00+27˚nw2579100 0.2 1004701
21:00+25˚nw1285100 0.7 100788
17 january, sun
sun1700:00+25˚n0186100 0.0 100743
03:00+24˚wsw0187100 0.4 100535
06:00+24˚nnw1286100 0.3 100544
09:00+27˚nw2476100 0.3 1008470
12:00+29˚wnw3565100 0.1 1007848
15:00+28˚w3668100 0.1 1004767
18:00+26˚wnw2578100 0.0 1005557
21:00+25˚wnw1286100 0.0 100781
18 january, mon
mon1800:00+24˚wnw2386100 0.0 100789
03:00+24˚nw1290100 0.2 100553
06:00+24˚w139080 0.8 100693
09:00+27˚wsw267990 1.9 1008762
12:00+27˚w6117999 0.8 10081160
15:00+25˚w61183100 1.2 1005961
18:00+25˚wsw2777100 0.4 1006375
21:00+25˚wsw1279100 0.4 100853
19 january, tue
tue1900:00+23˚e1192100 0.9 100844
03:00+22˚ese1196100 3.9 100747
06:00+23˚nw1192100 0.4 100743
09:00+24˚wsw1289100 0.4 1008141
12:00+27˚wsw1176100 0.0 1008590
15:00+30˚wsw136198 0.0 1006905
18:00+25˚ese1181100 0.0 100640
21:00+24˚e2391100 0.8 1009145
20 january, wed
wed2000:00+24˚ene1393100 0.4 1009122
03:00+24˚e1195100 0.7 100855
06:00+23˚ene0194100 0.0 100836
09:00+25˚wnw0186100 0.0 100949
12:00+26˚se1183100 0.0 1009190
15:00+32˚se1255100 0.0 10061120
18:00+28˚e127197 0.1 1007538
21:00+24˚ene129164 0.9 100956